Location: Unspecified
(43.8044°N, 11.0278°E)
Time: 00:23:34
(UTC+02:00)

Okean 3 - Visible Passes

Search period start: 21 August 2014 00:00
Search period end: 31 August 2014 00:00
Orbit: 583 x 611 km, 82.5° (Epoch: 20 August)

Date Brightness Start Highest point End Pass type
(mag) Time Alt. Az. Time Alt. Az. Time Alt. Az.
21 Aug 6.0 05:16:07 10° SE 05:19:24 22° E 05:22:40 10° NE visible
22 Aug 5.2 05:25:49 10° SSE 05:29:38 34° E 05:33:28 10° NNE visible
23 Aug 4.2 05:35:50 10° S 05:39:56 55° E 05:44:03 10° NNE visible
24 Aug 3.5 05:46:04 10° S 05:50:17 89° E 05:54:30 10° N visible
25 Aug 6.5 04:22:08 10° ESE 04:23:48 12° E 04:25:29 10° ENE visible
25 Aug 3.6 05:56:32 10° SSW 06:00:40 57° W 06:04:49 10° N visible
26 Aug 6.1 04:31:02 10° SE 04:33:59 19° E 04:36:57 10° NE visible
27 Aug 5.3 04:40:35 10° SSE 04:44:12 29° E 04:47:51 10° NNE visible
28 Aug 4.5 04:50:28 10° SSE 04:54:28 45° E 04:58:30 10° NNE visible
29 Aug 3.6 05:01:00 13° S 05:04:47 74° E 05:08:59 10° NNE visible
30 Aug 6.6 03:38:19 10° E 03:38:24 10° E 03:38:29 10° E visible
30 Aug 3.4 05:12:00 17° SSW 05:15:09 69° W 05:19:21 10° N visible
